Regional Weather Roundup
Issued by NWS Burlington, VT

Home | Current Version | Previous Version | Text Only | Print | Product List | Glossary On
Versions: 1 2 3 4 5 6 7 8 9 10 11 12 13 14 15 16 17 18 19 20 21 22 23 24 25 26 27 28 29 30 31 32 33 34 35 36 37 38 39 40 41 42 43 44 45 46 47 48 49 50
000
ASUS41 KBTV 271530
RWRBTV
VERMONT REGIONAL WEATHER ROUNDUP
NATIONAL WEATHER SERVICE BURLINGTON VT
1100 AM EDT TUE SEP 27 2016

NOTE: "FAIR" INDICATES FEW OR NO CLOUDS BELOW 12,000 FEET WITH NO
SIGNIFICANT WEATHER AND/OR OBSTRUCTIONS TO VISIBILITY.

* THESE REPORTS ARE NOT UNDER NWS QUALITY CONTROL AND/OR DO NOT
  REPORT WEATHER SUCH AS PRECIPITATION AND FOG.

VTZ001>019-271600-
_____VERMONT_____


CITY           SKY/WX    TMP DP  RH WIND       PRES   REMARKS
BURLINGTON     MOSUNNY   66  54  65 S7        29.89F
MONTPELIER     SUNNY     62  50  64 NW6       29.95S
MORRISVILLE    SUNNY     65  53  65 CALM      29.91F
ST. JOHNSBURY*   N/A     61  53  75 MISG      29.89F
LYNDONVILLE*   FAIR      60  52  75 CALM      29.93F
MIDDLEBURY*    FAIR      65  56  73 SW6       29.90F
RUTLAND*       CLOUDY    62  55  77 E5        29.93S
SPRINGFIELD    CLOUDY    60  56  86 SE3       29.93S
HIGHGATE*      FAIR      65  54  67 S6        29.88R
NEWPORT*       FAIR      62  51  68 SE6       29.91S
BENNINGTON     CLOUDY    61  55  81 CALM      29.93S
SUTTON*          N/A     57 N/A N/A MISG        N/A
ISLAND POND*     N/A     63 N/A N/A NW1         N/A
GALLUP MILLS*    N/A     61 N/A N/A MISG        N/A
UNION VILLAGE*   N/A     63 N/A N/A MISG        N/A
MT. MANSFIELD*   N/A     50 N/A N/A W14         N/A

_____LAKE CHAMPLAIN_____


CITY           SKY/WX    TMP DP  RH WIND       PRES   REMARKS
BURTON ISLAND*   N/A     63  57  82 S10         N/A
COLCHESTER RF*   N/A     61  57  88 S20         N/A
DIAMOND ISL*     N/A     61  57  88 SW7         N/A

$$

NYZ007-026>031-035-052-083-087-271600-
_____NORTHERN NEW YORK_____


CITY           SKY/WX    TMP DP  RH WIND       PRES   REMARKS
PLATTSBURGH    SUNNY     64  57  78 SE13      29.88S
SARANAC LAKE   CLOUDY    60  48  64 W7        29.88F
MASSENA        MOSUNNY   66  55  67 S14       29.86S
OGDENSBURG*    SUNNY     68  55  64 SW13      29.84S
POTSDAM*       SUNNY     66  54  63 SW13G18   29.86S
STARK FALLS*     N/A     79 N/A N/A S13         N/A
WATERTOWN      SUNNY     64  52  64 SW10G18   29.86S
FT DRUM        MOSUNNY   64  49  60 SW12      29.86S
ALBANY         MOSUNNY   64  56  75 W5        29.94R
GLENS FALLS    CLOUDY    61  55  81 S5        29.92S

$$
NHZ002-005-011-271600-
_____NEW HAMPSHIRE_____


CITY           SKY/WX    TMP DP  RH WIND       PRES   REMARKS
LEBANON        CLOUDY    59  57  93 CALM      29.92S
KEENE          CLOUDY    63  57  82 N3        29.93R
MT WASHINGTON  MOSUNNY   41  34  75 NW29        N/A  WCI  30
PLYMOUTH       PTSUNNY   57  54  89 CALM      29.91S
WHITEFIELD     CLOUDY    60  52  74 E3        29.92F

$$

_____REGIONAL QUEBEC LOCATIONS_____


CITY           SKY/WX    TMP DP  RH WIND       PRES   REMARKS
MONTREAL       MOSUNNY   64  54  68 SW10      29.85S
QUEBEC CITY    CLOUDY    52  50  93 NE9       29.89R
SHERBROOKE     MOSUNNY   63  54  72 W9        29.88S

_____REGIONAL ONTARIO LOCATIONS_____


CITY           SKY/WX    TMP DP  RH WIND       PRES   REMARKS
OTTAWA         MOSUNNY   64  46  52 SW15      29.83S

______KEY______
VSB  - VISIBILITY IN MILES
WCI  - WIND CHILL INDEX
HX   - HEAT INDEX
$$
NNNN




USA.gov is the U.S. government's official web portal to all federal, state and local government web resources and services.